Location: Newark
(27.9675°N, 86.8869°E)
Time: 22:06:43
(UTC+00:00)

SR - Pass Details

Date: 26 October 2019
Orbit: 573 x 882 km, 66.7° (Epoch: 20 November)

Event Time Altitude Azimuth Distance (km) Brightness Sun altitude
Rises 23:47:29 0° 341° (NNW) 3,479 ? -7.8°
Reaches altitude 10° 23:50:04 10° 346° (NNW) 2,541 ? -7.3°
Maximum altitude 23:55:53 56° 63° (ENE) 1,032 ? -6.0°
Drops below altitude 10° 00:01:29 10° 141° (SE) 2,450 ? -4.8°
Sets 00:03:55 0° 146° (SE) 3,346 ? -4.3°
